Weather History for Hazlehurst, GA

Change the Weather History Date:

Monday, March 25, 2013

  Actual Average Record
Temperature  
Mean Temperature 49 °F -  
Max Temperature 58 °F 75 °F 66 °F (2014)
Min Temperature 40 °F 49 °F 40 °F (2013)
Degree Days  
Heating Degree Days 16    
Moisture  
Dew Point 32 °F    
Average Humidity 53    
Maximum Humidity 86    
Minimum Humidity 33    
Precipitation  
Precipitation 0.00 in - - ()
Sea Level Pressure  
Sea Level Pressure 29.87 in    
Wind  
Wind Speed 9 mph (WNW)    
Max Wind Speed 16 mph    
Max Gust Speed 28 mph    
Visibility 10 miles    
Events      
Averages and records for this station are not official NWS values.
T = Trace of Precipitation, MM = Missing Value Source: NWS Daily Summary

Daily Weather History Graph

Daily Weather History Graph

Search for Another Location

Airport:

Trip Planner

Search our weather history database for the weather conditions in past years. The results will help you decide how hot, cold, wet, or windy it might be!

Date:

Astronomy

Mar. 25, 2013 Rise Set
Actual Time 7:27 AM EDT 7:45 PM EDT
Civil Twilight 7:03 AM EDT 8:10 PM EDT
Nautical Twilight 6:34 AM EDT 8:38 PM EDT
Astronomical Twilight 6:05 AM EDT 9:07 PM EDT
Moon 6:19 PM EDT (3/25) 6:05 AM EDT (3/25)
Length of Visible Light 13h 06m
Length of Day
12h 18m
Waxing Gibbous, 96% of the Moon is Illuminated
Mar 25
Waxing Gibbous
Mar 27
Full
Apr 3
Last Quarter
Apr 10
New
Apr 18
First Quarter

Hourly Weather History & Observations

Time (EDT) Temp. Windchill Dew Point Humidity Pressure Visibility Wind Dir Wind Speed Gust Speed Precip Events Conditions
12:15 AM 58.8 °F - 54.5 °F 86% 29.67 in 10.0 mi NW 12.7 mph 23.0 mph N/A   Overcast
12:35 AM 58.6 °F - 44.8 °F 60% 29.68 in 10.0 mi WNW 11.5 mph 21.9 mph N/A   Mostly Cloudy
12:55 AM 57.4 °F - 42.3 °F 57% 29.70 in 10.0 mi WNW 11.5 mph 20.7 mph N/A   Scattered Clouds
1:15 AM 55.6 °F - 41.2 °F 58% 29.70 in 10.0 mi WNW 10.4 mph 19.6 mph N/A   Clear
1:35 AM 54.1 °F - 41.2 °F 62% 29.71 in 10.0 mi West 9.2 mph 16.1 mph N/A   Clear
1:55 AM 53.2 °F - 42.1 °F 66% 29.71 in 10.0 mi WNW 9.2 mph 23.0 mph N/A   Clear
2:15 AM 52.5 °F - 42.6 °F 69% 29.72 in 10.0 mi WNW 4.6 mph 17.3 mph N/A   Clear
2:55 AM 51.1 °F - 43.0 °F 74% 29.73 in 10.0 mi WNW 5.8 mph - N/A   Clear
3:15 AM 50.4 °F - 42.8 °F 75% 29.74 in 10.0 mi WNW 12.7 mph 25.3 mph N/A   Clear
3:35 AM 49.6 °F - 39.7 °F 69% 29.75 in 10.0 mi West 10.4 mph 19.6 mph N/A   Clear
3:55 AM 48.4 °F - 38.8 °F 70% 29.75 in 10.0 mi NW 8.1 mph 18.4 mph N/A   Clear
4:15 AM 46.9 °F - 37.6 °F 70% 29.76 in 10.0 mi WNW 11.5 mph 21.9 mph N/A   Clear
4:35 AM 45.9 °F 41.7 °F 36.0 °F 68% 29.78 in 10.0 mi WNW 8.1 mph 20.7 mph N/A   Clear
4:55 AM 44.8 °F 43.3 °F 36.0 °F 71% 29.78 in 10.0 mi NW 3.5 mph - N/A   Clear
5:15 AM 43.9 °F 39.9 °F 35.4 °F 72% 29.80 in 10.0 mi WNW 6.9 mph - N/A   Clear
5:35 AM 43.2 °F 39.0 °F 34.7 °F 72% 29.80 in 10.0 mi WNW 6.9 mph - N/A   Clear
5:55 AM 42.8 °F 38.6 °F 33.4 °F 70% 29.81 in 10.0 mi WNW 6.9 mph 17.3 mph N/A   Clear
6:35 AM 41.7 °F 38.8 °F 32.9 °F 71% 29.83 in 10.0 mi WNW 4.6 mph - N/A   Scattered Clouds
6:55 AM 41.4 °F 36.8 °F 33.4 °F 73% 29.83 in 10.0 mi WNW 6.9 mph - N/A   Mostly Cloudy
7:15 AM 41.4 °F 38.4 °F 33.4 °F 73% 29.84 in 10.0 mi West 4.6 mph - N/A   Overcast
7:35 AM 40.8 °F 36.9 °F 32.7 °F 73% 29.84 in 10.0 mi West 5.8 mph - N/A   Scattered Clouds
7:55 AM 40.5 °F 38.4 °F 32.5 °F 73% 29.85 in 10.0 mi West 3.5 mph - N/A   Clear
8:15 AM 40.8 °F 37.8 °F 32.9 °F 73% 29.86 in 10.0 mi WSW 4.6 mph - N/A   Clear
8:35 AM 41.7 °F 39.8 °F 33.1 °F 71% 29.86 in 10.0 mi WSW 3.5 mph - N/A   Clear
8:55 AM 42.8 °F 38.6 °F 33.1 °F 69% 29.87 in 10.0 mi West 6.9 mph - N/A   Clear
9:15 AM 43.9 °F 36.8 °F 32.7 °F 65% 29.87 in 10.0 mi West 15.0 mph 24.2 mph N/A   Clear
9:35 AM 44.4 °F 39.0 °F 32.4 °F 63% 29.87 in 10.0 mi West 10.4 mph 20.7 mph N/A   Scattered Clouds
9:55 AM 44.8 °F 39.4 °F 32.0 °F 61% 29.88 in 10.0 mi West 10.4 mph 21.9 mph N/A   Scattered Clouds
10:15 AM 45.3 °F 40.6 °F 32.0 °F 60% 29.88 in 10.0 mi West 9.2 mph 19.6 mph N/A   Clear
10:35 AM 46.8 °F - 32.7 °F 58% 29.89 in 10.0 mi WNW 8.1 mph - N/A   Clear
10:55 AM 47.5 °F - 32.9 °F 57% 29.89 in 10.0 mi West 12.7 mph 23.0 mph N/A   Clear
11:15 AM 47.8 °F - 32.7 °F 56% 29.89 in 10.0 mi West 9.2 mph 20.7 mph N/A   Clear
11:35 AM 48.9 °F - 33.8 °F 56% 29.90 in 10.0 mi WSW 9.2 mph 20.7 mph N/A   Clear
11:55 AM 49.6 °F - 33.6 °F 54% 29.90 in 10.0 mi West 9.2 mph 18.4 mph N/A   Clear
12:15 PM 50.9 °F - 33.3 °F 51% 29.90 in 10.0 mi WNW 5.8 mph 18.4 mph N/A   Clear
12:35 PM 51.4 °F - 32.7 °F 49% 29.90 in 10.0 mi WNW 16.1 mph 26.5 mph N/A   Clear
12:55 PM 51.4 °F - 31.5 °F 46% 29.89 in 10.0 mi West 12.7 mph 21.9 mph N/A   Clear
1:15 PM 51.6 °F - 31.3 °F 46% 29.89 in 10.0 mi West 13.8 mph 26.5 mph N/A   Clear
1:35 PM 52.3 °F - 30.2 °F 43% 29.89 in 10.0 mi WNW 8.1 mph 23.0 mph N/A   Clear
1:55 PM 53.2 °F - 30.4 °F 42% 29.89 in 10.0 mi WNW 11.5 mph 21.9 mph N/A   Clear
2:15 PM 53.4 °F - 29.1 °F 39% 29.88 in 10.0 mi WNW 8.1 mph 23.0 mph N/A   Clear
2:35 PM 53.4 °F - 28.6 °F 38% 29.88 in 10.0 mi WNW 12.7 mph 25.3 mph N/A   Clear
2:55 PM 54.3 °F - 28.6 °F 37% 29.88 in 10.0 mi WNW 13.8 mph 25.3 mph N/A   Clear
3:15 PM 54.3 °F - 28.2 °F 37% 29.87 in 10.0 mi West 9.2 mph 20.7 mph N/A   Clear
3:35 PM 54.7 °F - 27.7 °F 35% 29.88 in 10.0 mi NW 15.0 mph 26.5 mph N/A   Clear
3:55 PM 54.9 °F - 26.8 °F 34% 29.87 in 10.0 mi West 10.4 mph 24.2 mph N/A   Clear
4:15 PM 55.4 °F - 27.5 °F 34% 29.86 in 10.0 mi WNW 13.8 mph 21.9 mph N/A   Clear
4:35 PM 55.6 °F - 28.0 °F 35% 29.87 in 10.0 mi West 8.1 mph 24.2 mph N/A   Clear
4:55 PM 55.8 °F - 27.9 °F 34% 29.87 in 10.0 mi West 8.1 mph 18.4 mph N/A   Clear
5:15 PM 56.1 °F - 28.2 °F 34% 29.87 in 10.0 mi West 11.5 mph 25.3 mph N/A   Clear
5:35 PM 55.6 °F - 27.5 °F 34% 29.87 in 10.0 mi West 15.0 mph 27.6 mph N/A   Clear
5:55 PM 55.0 °F - 26.1 °F 33% 29.88 in 10.0 mi NW 11.5 mph 23.0 mph N/A   Clear
6:15 PM 54.7 °F - 26.2 °F 33% 29.88 in 10.0 mi West 9.2 mph 20.7 mph N/A   Clear
6:35 PM 54.5 °F - 26.4 °F 34% 29.89 in 10.0 mi West 13.8 mph 19.6 mph N/A   Clear
6:55 PM 53.6 °F - 26.2 °F 35% 29.90 in 10.0 mi West 9.2 mph 24.2 mph N/A   Clear
7:15 PM 52.7 °F - 26.1 °F 36% 29.90 in 10.0 mi WNW 6.9 mph 18.4 mph N/A   Clear
7:35 PM 52.0 °F - 26.6 °F 37% 29.91 in 10.0 mi WNW 8.1 mph 16.1 mph N/A   Clear
7:55 PM 51.1 °F - 25.7 °F 37% 29.93 in 10.0 mi West 12.7 mph 21.9 mph N/A   Clear
8:15 PM 50.4 °F - 25.3 °F 38% 29.94 in 10.0 mi West 6.9 mph 17.3 mph N/A   Clear
8:35 PM 49.5 °F - 26.1 °F 40% 29.96 in 10.0 mi West 6.9 mph - N/A   Clear
8:55 PM 48.7 °F - 26.6 °F 42% 29.96 in 10.0 mi WNW 3.5 mph - N/A   Clear
9:15 PM 47.7 °F - 27.1 °F 45% 29.97 in 10.0 mi WNW 3.5 mph - N/A   Clear
9:35 PM 47.1 °F - 27.0 °F 46% 29.99 in 10.0 mi NW 4.6 mph - N/A   Clear
9:55 PM 46.9 °F - 26.6 °F 45% 29.99 in 10.0 mi NW 4.6 mph - N/A   Clear
10:15 PM 46.6 °F - 26.4 °F 45% 30.01 in 10.0 mi NW 6.9 mph - N/A   Clear
10:35 PM 46.2 °F 42.7 °F 26.1 °F 45% 30.01 in 10.0 mi NW 6.9 mph - N/A   Clear
10:55 PM 45.7 °F 41.5 °F 26.4 °F 47% 30.03 in 10.0 mi NW 8.1 mph 18.4 mph N/A   Clear
11:15 PM 45.1 °F 39.9 °F 26.8 °F 49% 30.04 in 10.0 mi NNW 10.4 mph - N/A   Clear
11:35 PM 44.2 °F 38.8 °F 27.0 °F 51% 30.05 in 10.0 mi NNW 10.4 mph 19.6 mph N/A   Clear
11:55 PM 43.5 °F 37.5 °F 26.1 °F 50% 30.06 in 10.0 mi NNW 11.5 mph 21.9 mph N/A   Clear